Terug naar catalogus

STARLINK-32892

ActiefCommunicatieVLEO
NORAD 62893·PAYLOAD·🇺🇸 United States

Gelanceerd Feb 4, 2025 vanaf Cape Canaveral Space Force Station

Loading…

Volgende Passages (komende 24 uur)

TLE

VersSource: CelesTrak SupGP

Epoch: Sep 15, 2026, 02:19 UTC

1 62893C 25024Q   26258.09701389  .00042568  00000+0  15417-2 0  2583
2 62893  43.0018 335.8726 0001489 263.5134   9.3890 15.27558586    18

Volg STARLINK-32892 in realtime met AllMySat

Download on the App Store